Regional Weather Roundup
Issued by NWS

Home | Current Version | Previous Version | Text Only | Print | Product List | Glossary Off
Versions: 1 2 3 4 5 6 7 8 9 10 11 12 13 14 15 16 17 18 19 20 21 22 23 24 25 26 27 28 29 30 31 32 33 34 35 36 37 38 39 40 41 42 43 44 45 46 47 48

000
ASUS45 KSLC 060810
RWRUT

UTAH REGIONAL WEATHER ROUNDUP
NATIONAL WEATHER SERVICE SALT LAKE CITY UT
100 AM MST FRI MAR 06 2015

UTZ001>011-023>025-060900-

NORTHERN UTAH

CITY           SKY/WX    TMP DP  RH WIND       PRES   REMARKS
BRIGHAM CITY   CLEAR     30  25  80 CALM      30.43S
HILL AFB       CLEAR     33  16  49 E13       30.41S WCI  24
LOGAN          CLEAR     26  20  77 CALM      30.42F
OGDEN          CLEAR     32  20  61 S7        30.41S WCI  26
PROVO AIRPORT  PTCLDY    28  21  74 SE3       30.44S
SALT LAKE CITY PTCLDY    34  23  64 SE8       30.42S WCI  27
VERNAL         PTCLDY    25  16  68 CALM      30.41R
WENDOVER       PTCLDY    30  21  69 SW5       30.40S WCI  25
HEBER CITY     PTCLDY    21  18  86 SE3       30.45S
WEST JORDAN    CLEAR     30  23  74 S5        30.43S WCI  25

$$

UTZ012>022-026-027-060900-

SOUTHERN/CENTRAL UTAH

CITY           SKY/WX    TMP DP  RH WIND       PRES   REMARKS
BLANDING       CLEAR     29  23  80 N7        30.46S WCI  22
BRYCE CANYON   PTCLDY     8   2  76 W12       30.42F WCI  -7
CEDAR CITY     CLEAR     21  13  71 NE7       30.39S WCI  12
DELTA          CLEAR     28  22  78 CALM      30.43S
HANKSVILLE     CLEAR     28  23  80 CALM      30.43S
MILFORD        CLEAR     27  22  81 S6        30.41S WCI  20
MOAB/CYNLANDS  CLEAR     27  19  72 SW3       30.39F
PRICE          CLEAR     27  16  63 CALM      30.38F
ST GEORGE      MOSUNNY   41  27  56 SE7       30.38S
KANAB          CLEAR     32  19  59 N9        30.42S WCI  24

$$

REGIONAL REPORTS     COLORADO/ARIZONA

CITY           SKY/WX    TMP DP  RH WIND       PRES   REMARKS
CRAIG, CO      CLEAR     14   9  80 CALM      30.41R
GRAND JUNCTION CLEAR     27  20  75 SE9       30.41F WCI  18
RIFLE          CLEAR     25  18  74 SE3       30.44S
MONTROSE       CLEAR     27  16  63 SE10      30.44S WCI  17
CORTEZ         CLEAR     23  19  85 E5        30.39F WCI  17
PAGE, AZ       CLEAR     37  25  61 CALM      30.38S HAZE
GRAND CANYON   PTCLDY    17  13  84 NE5       30.38F WCI  10
KINGMAN        CLEAR     40  27  59 E6        30.30F
FLAGSTAFF      CLEAR     21  10  62 CALM      30.36S

$$

REGIONAL REPORTS    NEVADA/IDAHO/WYOMING

CITY           SKY/WX    TMP DP  RH WIND       PRES   REMARKS
LAS VEGAS, NV  CLEAR     50  31  48 S7        30.27F
ELY            CLEAR     24  19  81 S9        30.42S WCI  14
ELKO           CLEAR     26  12  55 E5        30.41S WCI  20
POCATELLO, ID  MOCLDY    39  18  42 S13       30.36S WCI  31
BURLEY         CLEAR     34  14  43 CALM      30.36R
EVANSTON, WY   PTCLDY    21  12  68 SW9       30.39F WCI  11
ROCK SPRINGS   MOCLDY    25  14  63 S12       30.34S WCI  14

$$


USA.gov is the U.S. government's official web portal to all federal, state and local government web resources and services.